Dewpoint
-5 -5 -5 -5 -5 -4 -2 -2 3 3 2 3 3 3 4 4 2 1 -0 1 5 5 4 4 4 4 5 4 4 4 5 4 5 4 1 0 -1 -2 -0 1 4 5 7
-8 -6 -5 -5 -5 -4 -3 -1 1 4 4 4 4 4 3 2 0 0 3 5 5 5 5 5 5 5 5 5 5 6 6 5 5 7 7 6 2 0 -2 -3 -3 -2 0
-2 -7 -7 -5 -5 -4 -4 -1 -0 -0 2 3 2 2 0 -1 -0 1 4 5 5 5 5 4 4 5 4 5 5 6 6 6 6 6 7 7 7 7 5 5 5 5 5
-1 -0 -1 -5 -6 -5 -3 -1 -1 -0 -0 -1 -1 -0 -0 -1 -1 2 3 5 5 5 4 3 4 2 4 5 5 6 6 6 6 6 7 7 7 8 7 6 6 8 8
0 -1 0 1 1 -0 -2 -2 -2 -1 -0 -0 -0 0 2 2 3 3 4 4 4 4 4 3 0 1 3 3 4 7 6 6 6 6 6 6 6 6 7 7 7 7 6
-9 -10 -6 -1 -1 -1 -1 -1 -0 -0 1 0 0 1 0 2 3 3 4 3 3 3 4 3 -0 -2 -1 -0 -1 1 5 6 6 6 6 6 6 6 6 7 8 8 8
-10 -10 -10 -10 -9 -9 -8 -5 -4 -3 -2 -1 -1 -0 -0 -0 -1 -2 -0 0 0 2 3 2 0 -1 -2 -2 -2 -1 2 5 6 6 6 6 6 6 6 7 7 7 7
-10 -9 -9 -9 -8 -8 -8 -8 -7 -7 -6 -5 -5 -5 -4 -4 -3 -2 -3 -3 -2 -2 -2 -1 -1 -1 -1 -2 -3 -3 -1 -1 2 5 6 6 6 6 7 7 7 8 8
-6 -5 -5 -5 -5 -5 -5 -5 -5 -5 -6 -6 -7 -6 -6 -6 -5 -6 -6 -6 -5 -4 -3 -2 -1 -1 -1 -1 -1 -2 -1 0 0 3 5 5 6 6 7 7 7 7 8
-6 -5 -6 -6 -6 -6 -6 -6 -7 -7 -7 -8 -7 -7 -6 -5 -5 -6 -7 -7 -7 -7 -6 -5 -2 -1 -1 -1 -1 -1 -2 -1 -2 -0 4 6 6 6 7 7 7 7 7
-6 -4 -4 -5 -6 -8 -9 -9 -9 -9 -9 -9 -9 -8 -8 -8 -7 -5 -4 -5 -6 -7 -6 -6 -4 -2 -0 -1 -1 -0 -2 -2 -3 -1 3 4 5 5 6 5 5 8 7
-6 -4 -6 -8 -10 -10 -11 -12 -12 -12 -11 -10 -9 -8 -7 -7 -8 -7 -6 -5 -4 -4 -7 -5 -2 -2 -2 -1 0 0 -1 -3 -3 -3 1 3 3 3 3 3 3 4 5
-4 -7 -9 -10 -10 -9 -10 -11 -12 -13 -12 -12 -11 -10 -9 -7 -6 -6 -7 -7 -6 -5 -3 -5 -5 -3 -2 0 1 1 0 -2 -2 -1 -1 2 2 2 1 -1 -0 0 2
-6 -7 -7 -7 -9 -9 -9 -10 -10 -9 -9 -11 -12 -12 -11 -10 -7 -6 -6 -5 -5 -6 -5 -3 -4 -5 -4 -2 0 0 0 -1 -2 -0 -1 2 2 2 1 -0 2 3 4
-4 -5 -6 -8 -8 -10 -11 -11 -10 -9 -8 -8 -8 -10 -9 -9 -8 -7 -6 -5 -5 -4 -4 -3 -2 -3 -3 -2 -1 -1 -0 1 -0 -0 -0 -0 1 2 1 2 4 4 4
-6 -7 -8 -9 -9 -8 -6 -6 -6 -7 -8 -8 -7 -6 -5 -5 -6 -7 -7 -7 -6 -4 -3 -4 -3 -3 -2 -2 -1 0 0 1 2 -2 1 0 2 1 0 4 4 4 4
-5 -7 -9 -10 -7 -6 -5 -6 -7 -7 -6 -4 -3 -4 -4 -5 -5 -5 -5 -5 -6 -6 -6 -4 -3 -3 -3 -3 -2 0 1 0 1 1 0 1 1 -0 2 4 4 5 5
-6 -8 -10 -8 -6 -6 -6 -8 -6 -5 -5 -6 -4 -7 -9 -9 -9 -6 -4 -4 -4 -4 -6 -6 -4 -3 -3 -3 -3 -1 1 1 0 1 -1 0 -0 -2 2 4 4 4 5
-7 -7 -6 -4 -4 -5 -6 -9 -10 -7 -7 -6 -12 -16 -16 -14 -14 -6 -3 -3 -3 -4 -4 -5 -5 -3 -3 -3 -3 -2 0 1 0 -1 -1 0 -1 -2 -1 3 4 4 4
-8 -5 -5 -4 -5 -6 -8 -9 -14 -21 -21 -17 -13 -19 -20 -17 -13 -7 -2 -3 -3 -3 -3 -4 -5 -4 -3 -3 -3 -2 0 1 0 0 -0 -0 -1 -2 -2 -0 2 4 4
-6 -4 -4 -5 -8 -8 -11 -15 -17 -21 -20 -20 -20 -20 -18 -16 -14 -11 -3 -2 -2 -2 -2 -3 -4 -4 -3 -3 -3 -2 -0 1 1 0 -1 -1 -2 -3 -3 -3 -2 3 3
-6 -8 -8 -8 -9 -12 -15 -15 -16 -16 -17 -18 -20 -20 -19 -18 -14 -11 -4 -2 -2 -2 -2 -2 -3 -4 -3 -3 -2 -2 -1 1 1 0 -1 -1 -2 -4 -5 -4 -5 3 3
-11 -12 -13 -14 -14 -17 -19 -18 -18 -17 -16 -17 -17 -18 -18 -17 -15 -11 -8 -3 -3 -3 -3 -2 -2 -2 -3 -3 -2 -2 -1 1 1 1 -0 -1 -3 -5 -6 -6 -6 0 2
-16 -16 -17 -18 -20 -21 -22 -21 -20 -19 -18 -17 -16 -15 -14 -14 -14 -11 -6 -3 -3 -3 -3 -3 -3 -2 -2 -3 -2 -1 -1 1 1 1 -0 -2 -4 -5 -7 -8 -7 -3 -2
-13 -14 -14 -12 -13 -15 -17 -19 -20 -18 -17 -17 -15 -14 -13 -11 -11 -11 -6 -5 -4 -4 -3 -3 -3 -3 -2 -2 -2 -1 0 1 1 1 -1 -2 -3 -6 -8 -9 -10 -10 -9
-11 -12 -12 -12 -13 -13 -13 -15 -19 -18 -17 -17 -16 -12 -12 -12 -10 -8 -8 -5 -4 -4 -4 -3 -3 -3 -2 -2 -2 -1 -1 0 1 0 0 -1 -3 -6 -8 -10 -12 -14 -15
Wind_Speed
9 6 7 9 11 12 14 16 11 7 5 9 10 15 16 17 16 17 16 16 16 17 19 20 21 21 22 23 25 26 26 26 24 28 32 35 36 38 39 37 35 35 33
11 5 6 8 10 11 11 13 10 7 7 11 15 17 16 16 15 15 15 15 16 17 18 19 19 19 20 22 23 22 23 25 25 22 25 22 27 32 34 36 38 39 37
14 11 8 8 9 10 8 9 10 9 10 12 12 13 15 17 17 16 16 16 16 18 20 20 22 22 21 20 18 15 16 20 22 21 17 9 9 15 16 18 20 22 26
12 12 12 10 9 9 9 9 9 8 9 12 13 15 16 18 17 18 18 18 18 18 19 17 17 19 17 17 16 12 15 16 19 18 18 24 27 19 21 25 21 16 17
12 12 11 10 10 10 9 9 10 10 11 12 13 15 17 18 19 18 19 18 18 18 18 17 17 17 16 14 13 13 13 16 18 19 20 21 23 30 35 33 29 30 35
12 12 10 9 10 10 10 10 10 10 11 12 12 13 15 15 17 17 18 17 18 18 18 17 17 17 18 17 15 14 15 15 16 19 21 23 24 23 25 30 30 32 31
12 12 12 13 12 12 11 10 11 11 10 12 13 14 15 16 17 18 18 19 18 18 18 18 19 19 19 19 18 17 16 15 17 18 21 23 24 25 27 29 33 36 39
10 12 13 13 14 13 14 13 11 12 12 12 12 13 15 17 19 20 20 21 21 21 20 21 22 22 22 21 21 20 19 19 18 20 22 25 24 25 27 29 31 33 32
8 10 10 11 11 11 12 12 12 11 11 13 13 13 14 16 18 17 19 21 23 24 24 25 25 25 25 25 23 22 22 23 21 21 20 20 23 24 25 26 29 31 32
4 12 14 14 14 14 12 12 13 15 16 16 15 15 16 16 17 18 20 20 21 22 24 26 27 28 27 26 26 24 25 25 23 24 20 20 21 22 24 26 28 30 35
4 5 12 13 14 14 16 18 18 18 19 20 21 21 20 19 19 19 19 20 22 22 24 24 26 28 28 27 27 25 26 26 26 23 22 21 22 24 26 27 30 34 34
8 3 11 14 17 18 18 20 21 22 23 24 24 23 22 21 22 23 22 22 23 23 24 25 26 27 28 27 28 27 27 27 27 26 25 24 23 24 25 27 30 35 35
5 9 13 17 18 19 22 25 27 27 27 28 28 28 27 27 25 25 25 25 25 25 24 24 26 26 26 27 27 28 29 30 28 28 26 25 25 27 28 29 31 31 34
8 13 17 20 22 23 26 29 31 30 30 29 29 31 31 32 31 29 27 27 26 27 26 24 25 25 25 27 27 29 30 31 30 29 28 26 26 28 29 30 31 34 33
11 16 20 24 26 29 31 32 33 34 35 36 36 34 33 32 32 32 30 28 27 26 25 25 25 26 26 27 27 28 29 30 32 29 28 27 26 27 29 30 33 32 32
16 20 23 27 29 29 30 32 32 33 34 35 35 35 33 32 31 32 34 33 31 29 27 25 25 24 25 27 27 27 29 29 32 30 29 28 26 26 26 27 28 28 30
20 24 27 28 29 30 33 33 32 31 32 32 31 31 31 32 33 33 34 35 34 32 31 29 27 28 28 26 27 27 29 29 30 31 29 27 26 25 23 24 24 24 25
22 27 31 32 31 33 31 30 29 27 27 28 28 29 31 33 35 36 35 34 34 34 32 31 30 30 30 28 28 26 28 30 29 30 29 26 25 23 21 23 24 21 20
26 31 31 32 33 29 28 28 29 26 27 27 27 29 31 33 35 35 34 34 33 33 34 33 31 30 31 29 28 26 27 30 30 29 26 26 25 23 21 23 23 21 18
30 31 30 28 29 26 28 30 30 29 29 28 27 28 31 33 34 34 30 31 32 33 32 33 32 30 30 29 28 26 27 29 29 29 26 25 26 24 22 21 21 21 18
30 27 23 25 23 25 28 30 30 29 28 27 28 29 30 32 32 35 32 31 30 30 32 32 32 32 28 28 27 26 27 29 29 27 26 25 24 24 23 21 20 17 15
23 21 21 23 23 26 27 29 31 30 30 30 31 32 32 32 31 32 31 31 34 34 33 33 33 31 29 25 24 25 26 27 27 28 25 23 23 23 22 21 19 14 13
21 21 23 25 26 27 27 30 31 31 31 31 33 33 34 34 33 32 32 33 31 30 32 33 35 35 30 25 21 23 24 25 28 26 23 23 23 23 22 21 18 16 16
22 22 23 25 27 26 27 28 29 28 30 32 34 34 35 36 35 35 31 32 32 33 32 32 34 35 37 32 22 20 22 23 27 25 23 23 24 23 22 20 18 18 18
25 25 27 28 29 29 31 30 28 28 29 31 33 35 36 36 37 39 34 32 34 31 33 35 35 37 39 36 29 22 21 20 24 25 25 25 24 22 21 20 18 17 17
31 32 33 31 32 34 35 33 28 26 29 32 34 35 36 37 38 38 38 31 33 33 32 34 32 34 32 30 27 26 22 22 21 27 28 27 24 22 19 18 16 15 14
Wind_Direction
351 339 336 338 345 350 353 359 357 353 270 262 272 277 284 286 284 284 288 290 291 292 293 292 291 289 288 287 283 277 274 270 271 275 271 268 263 262 260 260 260 259 260
3 342 323 332 336 339 343 354 350 320 293 284 282 281 285 285 286 288 291 291 291 293 294 294 293 292 290 292 288 279 278 275 273 277 280 292 281 272 270 267 265 264 263
8 8 347 324 323 333 325 339 341 325 307 298 293 292 290 290 292 295 296 293 293 293 295 297 290 292 290 291 296 289 285 288 284 274 263 283 277 302 282 266 267 267 265
4 5 9 5 340 320 329 321 326 327 312 308 302 302 300 298 299 297 293 290 294 295 298 305 294 297 287 286 289 285 283 282 283 283 272 257 261 277 287 275 264 260 263
346 350 356 357 359 353 343 327 321 322 317 312 307 302 300 301 302 298 294 293 292 292 293 298 302 305 300 297 297 290 271 277 280 279 279 275 270 263 268 280 277 276 268
357 358 353 345 346 343 339 335 330 329 323 318 315 310 308 306 302 300 298 297 292 289 289 291 295 302 298 294 295 293 282 269 275 279 278 275 274 274 270 272 279 282 281
24 23 23 23 16 8 351 338 338 343 336 324 319 315 308 304 301 302 300 299 296 289 287 287 288 293 298 294 294 294 291 281 268 270 275 276 276 276 275 276 279 278 279
45 47 49 48 45 38 33 30 15 1 346 333 326 321 317 308 301 298 296 293 291 289 289 288 287 289 293 298 296 292 291 291 286 276 273 271 270 274 277 277 281 280 280
52 61 58 51 42 35 28 19 15 13 4 354 344 336 324 311 307 306 298 293 289 287 284 281 280 281 284 288 292 290 287 287 288 286 288 272 273 271 276 274 275 278 277
63 65 60 53 41 31 24 13 5 356 349 344 338 332 325 319 312 303 298 296 294 290 283 278 275 276 277 281 286 289 283 283 284 288 280 275 271 276 277 279 279 279 279
193 89 38 35 30 24 16 10 3 355 346 341 339 334 330 322 316 308 303 300 294 289 283 281 277 274 273 274 278 283 284 281 283 283 281 278 273 269 270 274 276 283 280
183 67 24 15 10 7 3 360 354 348 343 339 335 334 332 323 317 313 309 304 301 295 290 282 278 274 271 270 272 277 282 282 281 282 280 280 281 276 276 277 277 272 272
102 26 16 13 7 1 355 351 348 343 339 332 329 328 328 325 322 316 309 306 301 298 294 288 283 281 276 271 271 275 281 284 280 281 279 280 282 284 287 288 286 286 279
23 9 3 359 355 350 346 342 338 336 332 326 322 319 317 317 316 314 311 309 305 300 297 290 284 280 277 273 272 275 279 283 281 278 279 278 281 286 290 292 292 290 283
3 354 349 347 345 341 336 333 330 328 325 324 323 321 317 312 309 308 307 305 303 302 299 294 287 282 276 272 272 274 277 277 284 275 276 277 278 282 287 292 292 289 284
348 344 342 336 332 329 327 325 324 322 320 319 319 319 319 316 313 310 308 305 302 299 298 293 288 287 280 275 273 275 276 275 278 278 275 277 278 281 286 295 292 281 278
336 331 326 324 323 322 322 321 320 318 320 319 319 320 319 319 318 314 311 309 307 303 298 292 289 286 284 281 275 271 273 272 273 280 273 276 278 280 286 298 309 287 273
315 317 319 315 315 316 317 318 316 317 319 319 318 318 316 316 318 319 313 311 312 309 306 300 290 286 284 282 280 273 269 269 269 272 277 274 276 279 285 297 312 313 284
309 307 308 306 310 314 317 317 319 319 317 320 321 317 317 318 320 319 315 312 311 310 307 304 298 288 283 282 281 275 267 266 268 271 274 274 276 277 283 291 302 310 306
304 303 304 301 308 308 313 314 321 322 322 322 315 316 317 318 320 323 317 315 313 311 309 302 299 293 284 279 280 277 266 264 266 268 271 270 274 275 280 285 292 299 300
302 303 299 302 306 311 312 313 317 318 322 321 317 316 317 319 320 322 318 318 317 313 311 306 300 295 287 279 275 279 265 261 263 267 266 265 268 270 276 279 280 288 288
307 309 308 306 306 311 314 314 315 319 319 318 316 317 319 321 320 320 316 314 316 318 316 314 306 298 292 284 278 280 270 259 259 263 266 263 264 266 272 276 273 273 272
306 306 310 308 306 310 315 314 317 320 317 314 314 314 316 318 320 322 317 314 314 311 308 308 311 305 298 286 279 282 277 258 257 261 264 260 261 262 266 269 269 256 261
309 314 312 311 311 314 313 314 317 321 318 315 316 316 317 318 318 318 314 306 309 314 311 307 305 303 302 294 280 289 286 262 255 257 255 257 258 259 262 265 259 257 256
313 314 311 311 312 315 312 313 315 317 316 315 316 317 318 318 317 317 312 301 303 309 309 309 306 300 296 291 291 284 285 273 258 251 249 249 251 255 258 258 255 255 254
310 315 316 313 314 315 314 314 314 313 312 311 310 313 314 315 317 317 313 300 298 308 308 307 305 301 292 289 284 277 275 272 253 241 242 244 245 247 252 251 250 250 249
Height
1503 1502 1502 1500 1498 1498 1497 1495 1494 1493 1494 1495 1495 1496 1495 1495 1494 1493 1493 1492 1491 1491 1491 1491 1490 1489 1489 1488 1487 1486 1485 1485 1486 1484 1483 1482 1482 1483 1483 1485 1487 1487 1489
1503 1502 1500 1499 1498 1497 1497 1496 1495 1495 1495 1495 1495 1493 1493 1493 1492 1491 1491 1490 1489 1489 1489 1488 1486 1486 1484 1484 1482 1481 1480 1480 1481 1481 1479 1475 1475 1475 1476 1477 1478 1480 1482
1502 1500 1499 1498 1497 1497 1496 1495 1495 1494 1495 1494 1493 1492 1491 1490 1490 1490 1489 1488 1488 1487 1486 1485 1483 1482 1481 1479 1478 1477 1477 1476 1475 1476 1479 1477 1472 1469 1469 1470 1471 1473 1473
1504 1502 1499 1497 1496 1496 1495 1494 1493 1493 1493 1492 1491 1491 1490 1488 1488 1487 1486 1486 1485 1484 1483 1481 1480 1478 1477 1476 1475 1474 1473 1473 1471 1472 1472 1473 1473 1471 1465 1466 1468 1467 1468
1504 1502 1500 1499 1497 1495 1494 1493 1492 1491 1490 1490 1489 1488 1487 1486 1484 1483 1483 1482 1482 1481 1480 1479 1477 1475 1474 1472 1470 1470 1470 1469 1468 1468 1468 1467 1467 1467 1465 1458 1459 1460 1462
1503 1502 1500 1499 1498 1496 1494 1492 1491 1490 1489 1487 1486 1485 1484 1483 1481 1480 1479 1478 1478 1477 1476 1475 1474 1472 1471 1469 1467 1465 1465 1464 1464 1464 1463 1462 1462 1461 1460 1456 1454 1452 1452
1502 1500 1499 1498 1496 1495 1493 1492 1490 1489 1488 1486 1484 1483 1481 1480 1478 1477 1475 1474 1473 1473 1472 1471 1469 1468 1467 1465 1463 1461 1460 1459 1459 1459 1457 1456 1455 1455 1454 1452 1449 1446 1445
1503 1501 1499 1497 1496 1494 1492 1490 1489 1488 1486 1484 1482 1480 1479 1476 1475 1473 1471 1470 1469 1468 1467 1466 1465 1464 1463 1461 1459 1457 1456 1454 1453 1452 1451 1450 1449 1449 1448 1446 1445 1440 1438
1504 1502 1500 1498 1496 1494 1492 1491 1490 1487 1485 1483 1480 1478 1476 1474 1471 1469 1467 1465 1464 1462 1461 1460 1459 1458 1457 1456 1454 1452 1451 1449 1447 1446 1445 1444 1443 1442 1442 1440 1440 1438 1432
1505 1503 1501 1498 1497 1495 1492 1490 1488 1487 1485 1482 1479 1476 1473 1471 1468 1465 1463 1461 1459 1457 1455 1454 1452 1451 1451 1450 1448 1447 1445 1443 1442 1440 1439 1438 1437 1436 1435 1434 1433 1432 1429
1503 1502 1500 1498 1496 1494 1491 1489 1486 1483 1481 1478 1476 1473 1470 1467 1464 1462 1459 1456 1454 1451 1449 1447 1445 1444 1443 1443 1441 1440 1439 1437 1436 1434 1432 1431 1430 1430 1429 1428 1426 1424 1423
1500 1500 1498 1496 1494 1491 1489 1486 1484 1481 1478 1475 1472 1469 1466 1462 1460 1457 1453 1451 1448 1445 1443 1441 1438 1437 1436 1436 1434 1433 1432 1430 1428 1427 1426 1425 1424 1422 1421 1420 1418 1417 1416
1500 1498 1496 1493 1491 1489 1486 1484 1481 1478 1475 1471 1467 1464 1460 1458 1454 1451 1448 1445 1441 1438 1436 1434 1431 1429 1428 1428 1427 1426 1424 1422 1421 1420 1419 1418 1417 1415 1414 1412 1410 1408 1407
1498 1497 1494 1492 1489 1486 1483 1480 1477 1473 1470 1467 1463 1459 1456 1452 1449 1445 1442 1438 1435 1431 1429 1426 1424 1422 1421 1420 1420 1419 1417 1415 1413 1413 1412 1410 1410 1408 1406 1404 1402 1400 1398
1495 1494 1492 1490 1487 1483 1480 1476 1472 1468 1464 1460 1456 1453 1450 1446 1442 1439 1435 1431 1428 1425 1421 1419 1416 1414 1413 1412 1411 1411 1410 1408 1406 1405 1404 1403 1403 1402 1400 1397 1394 1392 1389
1494 1492 1490 1487 1483 1480 1475 1471 1467 1463 1459 1455 1451 1446 1442 1438 1435 1431 1427 1423 1420 1417 1414 1411 1409 1407 1405 1404 1404 1403 1402 1401 1400 1397 1397 1396 1395 1395 1393 1391 1387 1384 1380
1491 1489 1486 1482 1478 1475 1471 1466 1461 1457 1453 1449 1445 1440 1436 1431 1427 1423 1419 1414 1411 1408 1405 1403 1401 1398 1397 1396 1395 1395 1393 1392 1392 1390 1389 1389 1388 1387 1386 1383 1379 1375 1373
1487 1485 1482 1478 1473 1469 1465 1461 1457 1453 1449 1444 1440 1435 1430 1425 1420 1416 1411 1407 1403 1399 1396 1393 1392 1389 1388 1387 1386 1386 1385 1383 1383 1383 1382 1381 1380 1380 1378 1376 1372 1368 1365
1484 1480 1476 1472 1468 1464 1460 1456 1451 1447 1443 1438 1434 1430 1425 1419 1414 1409 1404 1399 1395 1391 1387 1384 1382 1380 1378 1378 1377 1377 1375 1374 1374 1374 1374 1374 1373 1372 1372 1370 1367 1364 1361
1479 1474 1470 1466 1463 1459 1455 1450 1445 1441 1436 1431 1428 1424 1419 1414 1408 1403 1398 1393 1389 1384 1380 1375 1373 1370 1368 1368 1368 1367 1365 1364 1365 1366 1366 1366 1366 1365 1365 1365 1363 1360 1358
1471 1467 1464 1461 1457 1453 1449 1444 1440 1435 1431 1426 1422 1417 1413 1407 1402 1397 1391 1387 1382 1377 1372 1367 1364 1361 1360 1358 1358 1358 1355 1355 1356 1356 1357 1358 1358 1358 1358 1358 1358 1356 1355
1464 1461 1457 1454 1451 1447 1443 1438 1434 1430 1425 1420 1415 1410 1405 1401 1396 1391 1386 1381 1376 1370 1364 1359 1354 1352 1350 1350 1349 1348 1347 1347 1347 1347 1349 1350 1350 1351 1351 1351 1351 1352 1351
1459 1455 1452 1448 1444 1441 1437 1431 1427 1423 1417 1413 1408 1403 1398 1394 1389 1385 1380 1375 1371 1365 1359 1354 1348 1343 1341 1341 1341 1339 1338 1338 1339 1340 1341 1342 1343 1344 1344 1345 1345 1346 1347
1452 1449 1446 1442 1437 1434 1430 1426 1421 1417 1411 1406 1401 1396 1391 1386 1382 1378 1374 1369 1364 1359 1354 1348 1343 1338 1334 1331 1332 1332 1330 1330 1331 1333 1334 1335 1336 1337 1338 1339 1340 1341 1341
1446 1443 1439 1435 1430 1427 1422 1418 1414 1409 1404 1399 1394 1389 1384 1379 1375 1370 1366 1362 1358 1355 1348 1343 1338 1333 1326 1324 1324 1324 1323 1323 1323 1326 1327 1327 1328 1330 1332 1333 1334 1335 1336
1438 1435 1431 1427 1423 1419 1414 1410 1406 1402 1397 1392 1386 1382 1377 1372 1368 1362 1355 1354 1349 1346 1342 1337 1332 1325 1320 1317 1316 1317 1316 1316 1316 1316 1317 1319 1322 1323 1326 1328 1330 1331 1332